User: anonymous   Login
Location: Morlupo
(42.1333°N, 12.5000°E)
Time: 14:19:28
(UTC+00:00)
Language:

FENGYUN 1C DEB - Orbit

View from above orbital plane
View from above orbital plane
View from above satellite
View from above satellite

Ground track
Ground track

The orbit data is extracted from the following two-line orbital elements,

1 30662U 99025APU 23086.04175017  .00003915  00000-0  20922-2 0  9991
2 30662  99.1254 108.5928 0038167 202.4578 214.7147 14.13430002826072
Epoch (UTC): 27 March 2023 01:00:07
Eccentricity: 0.0038167
inclination: 99.1254°
perigee height: 820 km
apogee height: 875 km
right ascension of ascending node: 108.5928°
argument of perigee: 202.4578°
revolutions per day: 14.13430002
mean anomaly at epoch: 214.7147°
orbit number at epoch: 82607

The dashed part of the orbit path shows where the satellite is in the earth's shadow,  

DLR